Regional Weather Roundup
Issued by NWS

Home | Current Version | Previous Version | Graphics & Text | Print | Product List | Glossary On
Versions: 1 2 3 4 5 6 7 8 9 10 11 12 13 14 15 16 17 18 19 20 21 22 23 24 25 26 27 28 29 30 31 32 33 34 35 36 37 38 39 40 41 42 43 44 45 46 47 48 49 50
000
ASUS43 KOAX 171602
RWRNE

WEATHER ROUNDUP FOR NEBRASKA
NATIONAL WEATHER SERVICE OMAHA NE
1100 AM CDT THU APR 17 2014

NOTES: SATELLITE DATA IS BEING USED TO AUGMENT CLOUD COVER ABOVE
       12000 FEET.
       "FAIR" INDICATES FEW OR NO CLOUDS BELOW 12,000 FEET WITH NO
       SIGNIFICANT WEATHER AND/OR OBSTRUCTIONS TO VISIBILITY.

  * THESE STATIONS DO NOT REPORT WEATHER SUCH AS RAIN...SNOW OR FOG.

NEZ001>004-019>022-054>056-171700-
NEBRASKA PANHANDLE

CITY           SKY/WX    TMP DP  RH WIND       PRES   REMARKS
SCOTTSBLUFF    CLOUDY    38  33  82 S10       30.15S WCI  31
ALLIANCE       CLOUDY    36  29  75 S16       30.16R WCI  26
CHADRON        CLOUDY    39  32  76 SW14      30.16S WCI  31
KIMBALL        FOG       35  33  94 S10       30.12R VSB 1/2 WCI  27
SIDNEY         CLOUDY    34  32  92 SE13      30.18R FOG     WCI  25
$$

NEZ057>060-069>072-079>082-171700-
SOUTHWEST NEBRASKA

CITY           SKY/WX    TMP DP  RH WIND       PRES   REMARKS
NORTH PLATTE   MOSUNNY   34  24  67 SE5       30.29R WCI  30
IMPERIAL       CLOUDY    32  27  81 SE10      30.26R WCI  24
LEXINGTON      CLOUDY    34  27  75 E5        30.31S WCI  29
MCCOOK         CLOUDY    34  26  72 NE6       30.32R WCI  29
OGALLALA       CLOUDY    33  27  77 SE10      30.25R WCI  25
$$

NEZ005>010-023>029-035>040-094-171700-
NORTH CENTRAL NEBRASKA

CITY           SKY/WX    TMP DP  RH WIND       PRES   REMARKS
VALENTINE      PTSUNNY   35  22  58 SE7       30.26S WCI  29
AINSWORTH      PTSUNNY   37  24  58 SE7       30.27R WCI  31
BROKEN BOW     SUNNY     37  23  56 E7        30.29S WCI  32
O`NEILL        SUNNY     37  21  52 NE3       30.32S
ORD            SUNNY     37  23  56 CALM      30.31S
THEDFORD       PTSUNNY   37  23  57 SE7       30.27F WCI  31
$$

NEZ041-046>049-061>064-073>077-083>087-171700-
SOUTH CENTRAL NEBRASKA

CITY           SKY/WX    TMP DP  RH WIND       PRES   REMARKS
GRAND ISLAND   SUNNY     39  25  57 N5        30.33R
HASTINGS       MOSUNNY   38  26  62 VRB5      30.32R WCI  34
HEBRON         PTSUNNY   39  26  61 N8G18     30.34R WCI  33
HOLDREGE       CLOUDY    33  26  73 CALM      30.31S
KEARNEY *      PTSUNNY   34  25  69 NW5       30.32S WCI  30
YORK           MOSUNNY   37  27  65 N9G18     30.33R WCI  31
$$

NEZ011>018-030>034-042>045-171700-
NORTHEAST NEBRASKA

CITY           SKY/WX    TMP DP  RH WIND       PRES   REMARKS
NORFOLK        SUNNY     38  23  55 N13G18    30.31S WCI  30
ALBION         SUNNY     37  23  57 N9        30.31S WCI  30
BLAIR          MOSUNNY   37  26  62 N6        30.33R WCI  33
COLUMBUS *     SUNNY     39  25  56 N9G16     30.33R WCI  33
FREMONT        SUNNY     39  25  56 N7        30.33R WCI  34
TEKAMAH        SUNNY     40  25  55 N12       30.34R WCI  33
$$

NEZ050>053-065>068-078-088>093-171700-
SOUTHEAST NEBRASKA

CITY           SKY/WX    TMP DP  RH WIND       PRES   REMARKS
LINCOLN        MOSUNNY   40  25  55 VRB5      30.35S
OMAHA EPPLEY   MOSUNNY   38  25  59 N7        30.35R WCI  33
BEATRICE       PTSUNNY   38  26  62 N10       30.33S WCI  30
FALLS CITY     PTSUNNY   39  27  62 N12       30.32R WCI  32
$$

NEZ044-045-051>053-067-171700-
OMAHA AREA

CITY           SKY/WX    TMP DP  RH WIND       PRES   REMARKS
OMAHA EPPLEY   MOSUNNY   38  25  59 N7        30.35R WCI  33
BLAIR          MOSUNNY   37  26  62 N6        30.33R WCI  33
FREMONT        SUNNY     39  25  56 N7        30.33R WCI  34
OFFUTT AFB     PTSUNNY   38  26  62 VRB3      30.35S
$$



USA.gov is the U.S. government's official web portal to all federal, state and local government web resources and services.